Time,TemperatureF,DewpointF,PressureIn,WindDirection,WindDirectionDegrees,WindSpeedMPH,WindSpeedGustMPH,Humidity,HourlyPrecipIn,Conditions,Clouds,dailyrainin,SoftwareType,DateUTC
2013-03-14 00:12:00,63.0,-99.9,30.10,NW,311,7.0,11.0,-999,-99.99,,,-99.99,,2013-03-14 04:12:00,
2013-03-14 00:22:00,63.0,-99.9,30.10,NW,315,7.0,9.0,-999,-99.99,,,-99.99,,2013-03-14 04:22:00,
2013-03-14 00:33:00,63.0,-99.9,30.10,NW,311,7.0,9.0,-999,-99.99,,,-99.99,,2013-03-14 04:33:00,
2013-03-14 00:42:00,63.0,-99.9,30.10,NW,315,8.0,9.0,-999,-99.99,,,-99.99,,2013-03-14 04:42:00,
2013-03-14 00:53:00,63.0,-99.9,30.10,NW,313,6.0,8.0,-999,-99.99,,,-99.99,,2013-03-14 04:53:00,
2013-03-14 01:02:00,63.0,-99.9,30.10,NW,306,6.0,7.0,-999,-99.99,,,-99.99,,2013-03-14 05:02:00,
2013-03-14 01:13:00,62.0,-99.9,30.10,NW,306,6.0,8.0,-999,-99.99,,,-99.99,,2013-03-14 05:13:00,
2013-03-14 01:22:00,62.0,-99.9,30.10,NW,304,7.0,9.0,-999,-99.99,,,-99.99,,2013-03-14 05:22:00,
2013-03-14 01:33:00,62.0,-99.9,30.09,NW,306,7.0,9.0,-999,-99.99,,,-99.99,,2013-03-14 05:33:00,
2013-03-14 01:42:00,61.0,-99.9,30.09,WNW,303,8.0,10.0,-999,-99.99,,,-99.99,,2013-03-14 05:42:00,
2013-03-14 01:53:00,61.0,-99.9,30.09,WNW,301,8.0,10.0,-999,-99.99,,,-99.99,,2013-03-14 05:53:00,
2013-03-14 02:02:00,61.0,-99.9,30.09,WNW,297,9.0,10.0,-999,-99.99,,,-99.99,,2013-03-14 06:02:00,
2013-03-14 02:12:00,60.0,-99.9,30.09,WNW,296,9.0,11.0,-999,-99.99,,,-99.99,,2013-03-14 06:12:00,
2013-03-14 02:22:00,60.0,-99.9,30.09,WNW,295,12.0,15.0,-999,-99.99,,,-99.99,,2013-03-14 06:22:00,
2013-03-14 02:33:00,59.0,-99.9,30.09,WNW,298,11.0,17.0,-999,-99.99,,,-99.99,,2013-03-14 06:33:00,
2013-03-14 02:42:00,59.0,-99.9,30.09,WNW,297,9.0,12.0,-999,-99.99,,,-99.99,,2013-03-14 06:42:00,
2013-03-14 02:52:00,59.0,-99.9,30.09,WNW,301,10.0,13.0,-999,-99.99,,,-99.99,,2013-03-14 06:52:00,
2013-03-14 03:02:00,58.0,-99.9,30.09,NW,304,11.0,14.0,-999,-99.99,,,-99.99,,2013-03-14 07:02:00,
2013-03-14 03:12:00,58.0,-99.9,30.08,NW,311,9.0,13.0,-999,-99.99,,,-99.99,,2013-03-14 07:12:00,
2013-03-14 03:22:00,58.0,-99.9,30.08,NW,307,9.0,13.0,-999,-99.99,,,-99.99,,2013-03-14 07:22:00,
2013-03-14 03:32:00,58.0,-99.9,30.09,NW,307,10.0,12.0,-999,-99.99,,,-99.99,,2013-03-14 07:32:00,
2013-03-14 03:43:00,58.0,-99.9,30.09,NW,304,9.0,12.0,-999,-99.99,,,-99.99,,2013-03-14 07:43:00,
2013-03-14 03:52:00,58.0,-99.9,30.09,WNW,300,8.0,11.0,-999,-99.99,,,-99.99,,2013-03-14 07:52:00,
2013-03-14 04:02:00,58.0,-99.9,30.08,NW,306,10.0,13.0,-999,-99.99,,,-99.99,,2013-03-14 08:02:00,
2013-03-14 04:12:00,58.0,-99.9,30.08,NW,319,10.0,14.0,-999,-99.99,,,-99.99,,2013-03-14 08:12:00,
2013-03-14 04:22:00,58.0,-99.9,30.08,NW,318,10.0,12.0,-999,-99.99,,,-99.99,,2013-03-14 08:22:00,
2013-03-14 04:32:00,57.0,-99.9,30.08,NW,319,13.0,17.0,-999,-99.99,,,-99.99,,2013-03-14 08:32:00,
2013-03-14 04:42:00,57.0,-99.9,30.07,NW,322,13.0,18.0,-999,-99.99,,,-99.99,,2013-03-14 08:42:00,
2013-03-14 04:52:00,57.0,-99.9,30.07,NW,316,13.0,16.0,-999,-99.99,,,-99.99,,2013-03-14 08:52:00,
2013-03-14 05:02:00,57.0,-99.9,30.07,NW,318,13.0,18.0,-999,-99.99,,,-99.99,,2013-03-14 09:02:00,
2013-03-14 05:12:00,57.0,-99.9,30.07,NW,317,13.0,16.0,-999,-99.99,,,-99.99,,2013-03-14 09:12:00,
2013-03-14 05:22:00,57.0,-99.9,30.06,NW,314,14.0,18.0,-999,-99.99,,,-99.99,,2013-03-14 09:22:00,
2013-03-14 05:32:00,57.0,-99.9,30.07,NW,320,13.0,18.0,-999,-99.99,,,-99.99,,2013-03-14 09:32:00,
2013-03-14 05:42:00,57.0,-99.9,30.07,NW,320,13.0,16.0,-999,-99.99,,,-99.99,,2013-03-14 09:42:00,
2013-03-14 05:52:00,57.0,-99.9,30.07,NW,320,11.0,16.0,-999,-99.99,,,-99.99,,2013-03-14 09:52:00,
2013-03-14 06:02:00,56.0,-99.9,30.08,NW,320,11.0,16.0,-999,-99.99,,,-99.99,,2013-03-14 10:02:00,
2013-03-14 06:12:00,56.0,-99.9,30.08,NW,326,12.0,16.0,-999,-99.99,,,-99.99,,2013-03-14 10:12:00,
2013-03-14 06:22:00,56.0,-99.9,30.08,NW,322,12.0,17.0,-999,-99.99,,,-99.99,,2013-03-14 10:22:00,
2013-03-14 06:32:00,56.0,-99.9,30.09,NNW,327,13.0,16.0,-999,-99.99,,,-99.99,,2013-03-14 10:32:00,
2013-03-14 06:42:00,56.0,-99.9,30.09,NW,322,13.0,18.0,-999,-99.99,,,-99.99,,2013-03-14 10:42:00,
2013-03-14 06:52:00,56.0,-99.9,30.10,NNW,328,14.0,18.0,-999,-99.99,,,-99.99,,2013-03-14 10:52:00,
2013-03-14 07:02:00,56.0,-99.9,30.10,NW,324,14.0,19.0,-999,-99.99,,,-99.99,,2013-03-14 11:02:00,
2013-03-14 07:12:00,56.0,-99.9,30.10,NW,322,14.0,19.0,-999,-99.99,,,-99.99,,2013-03-14 11:12:00,
2013-03-14 07:22:00,56.0,-99.9,30.11,NW,326,17.0,20.0,-999,-99.99,,,-99.99,,2013-03-14 11:22:00,
2013-03-14 07:33:00,56.0,-99.9,30.11,NW,325,16.0,19.0,-999,-99.99,,,-99.99,,2013-03-14 11:33:00,
2013-03-14 07:42:00,56.0,-99.9,30.11,NW,324,15.0,18.0,-999,-99.99,,,-99.99,,2013-03-14 11:42:00,
2013-03-14 07:53:00,56.0,-99.9,30.12,NW,321,16.0,18.0,-999,-99.99,,,-99.99,,2013-03-14 11:53:00,
2013-03-14 08:02:00,56.0,-99.9,30.12,NW,322,16.0,20.0,-999,-99.99,,,-99.99,,2013-03-14 12:02:00,
2013-03-14 08:12:00,56.0,-99.9,30.13,NW,325,15.0,21.0,-999,-99.99,,,-99.99,,2013-03-14 12:12:00,
2013-03-14 08:22:00,56.0,-99.9,30.13,NW,321,15.0,19.0,-999,-99.99,,,-99.99,,2013-03-14 12:22:00,
2013-03-14 08:33:00,57.0,-99.9,30.13,NW,325,15.0,21.0,-999,-99.99,,,-99.99,,2013-03-14 12:33:00,
2013-03-14 08:43:00,57.0,-99.9,30.14,NW,320,14.0,19.0,-999,-99.99,,,-99.99,,2013-03-14 12:43:00,
2013-03-14 08:52:00,57.0,-99.9,30.14,NW,320,14.0,17.0,-999,-99.99,,,-99.99,,2013-03-14 12:52:00,
2013-03-14 09:03:00,57.0,-99.9,30.15,NW,319,15.0,18.0,-999,-99.99,,,-99.99,,2013-03-14 13:03:00,
2013-03-14 09:13:00,57.0,-99.9,30.16,NW,321,13.0,17.0,-999,-99.99,,,-99.99,,2013-03-14 13:13:00,
2013-03-14 09:22:00,57.0,-99.9,30.15,NW,322,12.0,17.0,-999,-99.99,,,-99.99,,2013-03-14 13:22:00,
2013-03-14 09:32:00,58.0,-99.9,30.16,NW,323,11.0,15.0,-999,-99.99,,,-99.99,,2013-03-14 13:32:00,
2013-03-14 09:43:00,58.0,-99.9,30.16,NW,323,11.0,15.0,-999,-99.99,,,-99.99,,2013-03-14 13:43:00,
2013-03-14 09:53:00,59.0,-99.9,30.16,NW,323,14.0,18.0,-999,-99.99,,,-99.99,,2013-03-14 13:53:00,
2013-03-14 10:02:00,60.0,-99.9,30.16,NNW,327,11.0,17.0,-999,-99.99,,,-99.99,,2013-03-14 14:02:00,
2013-03-14 10:12:00,60.0,-99.9,30.17,NNW,333,17.0,19.0,-999,-99.99,,,-99.99,,2013-03-14 14:12:00,
2013-03-14 10:22:00,61.0,-99.9,30.17,NW,325,15.0,19.0,-999,-99.99,,,-99.99,,2013-03-14 14:22:00,
2013-03-14 10:32:00,61.0,-99.9,30.17,NNW,327,14.0,20.0,-999,-99.99,,,-99.99,,2013-03-14 14:32:00,
2013-03-14 10:43:00,62.0,-99.9,30.18,NNW,335,13.0,18.0,-999,-99.99,,,-99.99,,2013-03-14 14:43:00,
2013-03-14 10:53:00,62.0,-99.9,30.18,NNW,334,17.0,21.0,-999,-99.99,,,-99.99,,2013-03-14 14:53:00,
2013-03-14 11:02:00,62.0,-99.9,30.18,NNW,334,13.0,18.0,-999,-99.99,,,-99.99,,2013-03-14 15:02:00,
2013-03-14 11:12:00,62.0,-99.9,30.18,NNW,333,16.0,19.0,-999,-99.99,,,-99.99,,2013-03-14 15:12:00,
2013-03-14 11:22:00,62.0,-99.9,30.18,North,353,17.0,20.0,-999,-99.99,,,-99.99,,2013-03-14 15:22:00,
2013-03-14 11:33:00,62.0,-99.9,30.18,NNW,343,16.0,19.0,-999,-99.99,,,-99.99,,2013-03-14 15:33:00,
2013-03-14 11:43:00,63.0,-99.9,30.18,North,3,18.0,21.0,-999,-99.99,,,-99.99,,2013-03-14 15:43:00,
2013-03-14 11:52:00,63.0,-99.9,30.18,North,356,17.0,22.0,-999,-99.99,,,-99.99,,2013-03-14 15:52:00,
2013-03-14 12:03:00,63.0,-99.9,30.18,North,8,21.0,25.0,-999,-99.99,,,-99.99,,2013-03-14 16:03:00,
2013-03-14 12:12:00,63.0,-99.9,30.18,North,10,24.0,26.0,-999,-99.99,,,-99.99,,2013-03-14 16:12:00,
2013-03-14 12:13:00,64.0,-99.9,30.18,North,357,23.0,28.0,-999,-99.99,,,-99.99,,2013-03-14 16:13:00,
2013-03-14 12:23:00,63.0,-99.9,30.18,North,6,21.0,25.0,-999,-99.99,,,-99.99,,2013-03-14 16:23:00,
2013-03-14 12:33:00,63.0,-99.9,30.18,North,6,23.0,25.0,-999,-99.99,,,-99.99,,2013-03-14 16:33:00,
2013-03-14 12:42:00,63.0,-99.9,30.18,North,10,24.0,26.0,-999,-99.99,,,-99.99,,2013-03-14 16:42:00,
2013-03-14 12:52:00,63.0,-99.9,30.18,North,10,24.0,26.0,-999,-99.99,,,-99.99,,2013-03-14 16:52:00,
2013-03-14 13:03:00,63.0,-99.9,30.18,North,10,24.0,26.0,-999,-99.99,,,-99.99,,2013-03-14 17:03:00,